Back to catalog

COSMOS 1275 DEB

AlivePO
NORAD 12746·DEBRIS·🇷🇺 Russia

Launched Jun 4, 1981 from Plesetsk Cosmodrome

Loading…

Next Passes (next 24 hours)

TLE

FreshSource: Space-Track

Epoch: Sep 13, 2026, 13:29 UTC

1 12746U 81053CP  26256.56230640  .00002098  00000-0  78212-3 0  9996
2 12746  82.9325  81.0884 0036543 355.7536   4.3335 14.31226209299700

Track COSMOS 1275 DEB in real time with AllMySat

Download on the App Store